{"data":{"norad_id":65884,"intl_designator":"2025-224C","name":"STARLINK-35384","alt_names":[],"object_type":"PAYLOAD","status":"ACTIVE","operator":null,"country":"US","launch_date":"2025-10-07","launch_site_code":"AFETR","launch_vehicle":null,"mission":null,"orbit_class":"UNKNOWN","rcs_meters":null,"size_class":null,"mass_kg":null,"dimensions":null,"purposes":["comms"],"wikipedia_slug":null,"has_3d_model":false,"image_url":null,"decayed_at":null,"tle_current":{"epoch":"2026-05-25T01:06:27.016128Z","epoch_age_seconds":78014,"freshness":"FRESH","line1":"1 65884U 25224C   26145.04614602  .00017899  00000+0  61474-3 0  9995","line2":"2 65884  53.1601  16.7667 0001151  85.6482 274.4650 15.30213186 36516","mean_motion":15.30213186,"eccentricity":0.0001151,"inclination_deg":53.1601,"raan_deg":16.7667,"arg_perigee_deg":85.6482,"mean_anomaly_deg":274.465,"bstar":0.00061474,"rev_number":3651,"period_min":94.104534791272,"perigee_km":474.38688239122,"apogee_km":475.96451497445,"semimajor_km":6853.3126986828,"source":"CELESTRAK","updated_at":"2026-05-25T13:38:20.978883Z"}}}